Slidell, LA

9:35 PM CDT on May 25, 2017 (GMT -0500)
Slidell

Weather History for KASD - August, 2014

Change the Weather History Date:

Thursday, August 28, 2014

  Actual Average (KNEW) Record (KNEW)
Temperature  
Mean Temperature 83 °F -  
Max Temperature 91 °F 89 °F 99 °F (1998)
Min Temperature 75 °F 77 °F 67 °F (1971)
Cooling Degree Days 18    
Growing Degree Days 33 (Base 50)    
Moisture  
Dew Point 72 °F    
Average Humidity 77    
Maximum Humidity 94    
Minimum Humidity 48    
Precipitation  
Precipitation 0.00 in - - ()
Sea Level Pressure  
Sea Level Pressure 29.97 in    
Wind  
Wind Speed 3 mph (ESE)    
Max Wind Speed 9 mph    
Max Gust Speed -    
Visibility 10 miles    
Events      
Averages and records for this station are not official NWS values.
T = Trace of Precipitation, MM = Missing Value Source: NWS Daily Summary

Daily Weather History Graph

Daily Weather History Graph

Search for Another Location

Airport or City:

Trip Planner

Search our weather history database for the weather conditions in past years. The results will help you decide how hot, cold, wet, or windy it might be!

Date:

Astronomy

Aug. 28, 2014 Rise Set
Actual Time 6:33 AM CDT 7:26 PM CDT
Civil Twilight 6:09 AM CDT 7:51 PM CDT
Nautical Twilight 5:40 AM CDT 8:20 PM CDT
Astronomical Twilight 5:10 AM CDT 8:49 PM CDT
Moon 9:11 AM CDT (8/28) 9:07 PM CDT (8/28)
Length of Visible Light 13h 42m
Length of Day
12h 52m
Waxing Crescent, 9% of the Moon is Illuminated
Aug 28
Waxing Crescent
Sep 2
First Quarter
Sep 8
Full
Sep 15
Last Quarter
Sep 24
New

Hourly Weather History & Observations

Time (CDT) Temp. Heat Index Dew Point Humidity Pressure Visibility Wind Dir Wind Speed Gust Speed Precip Events Conditions
12:53 AM 75.9 °F - 73.0 °F 91% 30.00 in 10.0 mi North 4.6 mph - N/A   Clear
1:53 AM 75.9 °F - 73.0 °F 91% 29.99 in 10.0 mi Calm Calm - N/A   Clear
2:53 AM 75.9 °F - 73.0 °F 91% 29.98 in 10.0 mi Calm Calm - N/A   Clear
3:53 AM 75.0 °F - 73.0 °F 94% 29.97 in 10.0 mi North 3.5 mph - N/A   Mostly Cloudy
4:53 AM 75.9 °F - 73.0 °F 91% 29.97 in 10.0 mi North 3.5 mph - N/A   Overcast
5:53 AM 75.0 °F - 72.0 °F 90% 29.97 in 10.0 mi Calm Calm - N/A   Clear
6:53 AM 75.0 °F - 72.0 °F 90% 29.98 in 10.0 mi Calm Calm - N/A   Mostly Cloudy
7:53 AM 78.1 °F - 73.9 °F 87% 29.99 in 10.0 mi NE 4.6 mph - N/A   Mostly Cloudy
8:53 AM 81.0 °F 87.3 °F 75.9 °F 85% 29.99 in 10.0 mi Calm Calm - N/A   Scattered Clouds
10:53 AM 87.1 °F 95.4 °F 73.9 °F 65% 30.01 in 10.0 mi East 6.9 mph - N/A   Mostly Cloudy
11:53 AM 87.1 °F 94.5 °F 73.0 °F 63% 30.01 in 10.0 mi ESE 4.6 mph - N/A   Partly Cloudy
12:53 PM 84.9 °F 90.1 °F 71.1 °F 63% 30.00 in 10.0 mi SSE 4.6 mph - 0.00 in   Overcast
1:53 PM 89.1 °F 97.0 °F 73.0 °F 59% 29.98 in 10.0 mi Variable 4.6 mph - N/A   Mostly Cloudy
2:53 PM 91.0 °F 95.6 °F 69.1 °F 48% 29.96 in 10.0 mi Variable 5.8 mph - N/A   Scattered Clouds
3:53 PM 89.1 °F 95.0 °F 71.1 °F 55% 29.94 in 10.0 mi SSE 9.2 mph - N/A   Scattered Clouds
4:53 PM 88.0 °F 92.1 °F 69.1 °F 53% 29.93 in 10.0 mi SSE 4.6 mph - N/A   Clear
5:53 PM 89.1 °F 94.1 °F 70.0 °F 53% 29.92 in 10.0 mi SSE 9.2 mph - N/A   Clear
6:53 PM 84.9 °F 90.7 °F 72.0 °F 65% 29.92 in 10.0 mi SSE 3.5 mph - N/A   Clear
7:53 PM 81.0 °F 86.2 °F 73.9 °F 79% 29.93 in 10.0 mi SE 3.5 mph - N/A   Clear
8:53 PM 78.1 °F - 73.9 °F 87% 29.95 in 10.0 mi Calm Calm - N/A   Clear
9:53 PM 77.0 °F - 73.0 °F 88% 29.96 in 10.0 mi Calm Calm - N/A   Clear
10:53 PM 75.9 °F - 73.0 °F 91% 29.98 in 10.0 mi Calm Calm - N/A   Clear
11:53 PM 75.0 °F - 72.0 °F 90% 29.98 in 10.0 mi Calm Calm - N/A   Clear